Weather History for St. Louis, MO

Change the Weather History Date:

Tuesday, February 26, 2013

  Actual Average Record
Temperature  
Mean Temperature 38 °F 40 °F  
Max Temperature 41 °F 49 °F 78 °F (1996)
Min Temperature 34 °F 31 °F -3 °F (1934)
Degree Days  
Heating Degree Days 27 25  
Month to date heating degree days 753 755  
Since 1 July heating degree days 3255 3549  
Cooling Degree Days 0 0  
Month to date cooling degree days 0 0  
Year to date cooling degree days 0 0  
Moisture  
Dew Point 34 °F    
Average Humidity 87    
Maximum Humidity 92    
Minimum Humidity 82    
Precipitation  
Precipitation 0.84 in 0.08 in 2.19 in (1997)
Month to date precipitation 3.18 2.08  
Year to date precipitation 6.30 4.48  
Snow  
Snow T in 0.10 in 12.80 in (1906)
Month to date snowfall 9.7 4.0  
Since 1 July snowfall 12.7 14.7  
Snow Depth 2.00 in    
Sea Level Pressure  
Sea Level Pressure 29.46 in    
Wind  
Wind Speed 13 mph (NNE)    
Max Wind Speed 24 mph    
Max Gust Speed 33 mph    
Visibility 3 miles    
Events Rain , Snow    
T = Trace of Precipitation, MM = Missing Value Source: NWS Daily Summary

Daily Weather History Graph

Daily Weather History Graph

Search for Another Location

Airport:

Trip Planner

Search our weather history database for the weather conditions in past years. The results will help you decide how hot, cold, wet, or windy it might be!

Date:

Astronomy

Feb. 26, 2013 Rise Set
Actual Time 6:37 AM CST 5:51 PM CST
Civil Twilight 6:10 AM CST 6:18 PM CST
Nautical Twilight 5:40 AM CST 6:49 PM CST
Astronomical Twilight 5:09 AM CST 7:19 PM CST
Moon 7:06 PM CST (2/26) 6:41 AM CST (2/26)
Length of Visible Light 12h 07m
Length of Day
11h 13m
Full, 99% of the Moon is Illuminated
Feb 26
Full
Mar 4
Last Quarter
Mar 11
New
Mar 19
First Quarter
Mar 27
Full

Hourly Weather History & Observations

Time (CST) Temp. Windchill Dew Point Humidity Pressure Visibility Wind Dir Wind Speed Gust Speed Precip Events Conditions
12:51 AM 36.0 °F 25.6 °F 30.9 °F 82% 29.58 in 4.0 mi NE 18.4 mph 24.2 mph 0.14 in Rain Light Rain
1:30 AM 35.6 °F 24.8 °F 32.0 °F 87% 29.55 in 3.0 mi NE 19.6 mph 27.6 mph 0.15 in Rain Light Rain
1:51 AM 36.0 °F 25.3 °F 32.0 °F 86% 29.55 in 3.0 mi NE 19.6 mph 27.6 mph 0.26 in Rain Light Rain
2:03 AM 35.6 °F 25.9 °F 32.0 °F 87% 29.53 in 2.5 mi NE 16.1 mph 23.0 mph 0.06 in Rain Rain
2:07 AM 35.6 °F 25.5 °F 32.0 °F 87% 29.52 in 2.5 mi NE 17.3 mph 21.9 mph 0.08 in Rain Rain
2:31 AM 35.6 °F 25.2 °F 32.0 °F 87% 29.49 in 3.0 mi NE 18.4 mph 28.8 mph 0.20 in Rain Rain
2:47 AM 35.6 °F 25.2 °F 30.2 °F 81% 29.46 in 3.0 mi NE 18.4 mph 25.3 mph 0.23 in Rain Light Rain
2:51 AM 35.1 °F 23.8 °F 30.9 °F 85% 29.48 in 3.0 mi NE 20.7 mph 27.6 mph 0.23 in Rain Light Rain
3:51 AM 35.1 °F 24.5 °F 32.0 °F 89% 29.44 in 3.0 mi ENE 18.4 mph 25.3 mph 0.13 in Rain Rain
4:10 AM 35.6 °F 25.5 °F 32.0 °F 87% 29.42 in 4.0 mi ENE 17.3 mph 26.5 mph 0.03 in Rain Light Rain
4:30 AM 35.6 °F 25.2 °F 32.0 °F 87% 29.41 in 5.0 mi ENE 18.4 mph 25.3 mph 0.05 in Rain , Snow Light Rain
4:40 AM 35.6 °F 25.5 °F 32.0 °F 87% 29.40 in 4.0 mi ENE 17.3 mph - 0.06 in Rain Light Rain
4:51 AM 36.0 °F 25.6 °F 32.0 °F 86% 29.41 in 5.0 mi ENE 18.4 mph 23.0 mph 0.06 in Rain Light Rain
5:20 AM 35.6 °F 24.5 °F 32.0 °F 87% 29.39 in 3.0 mi ENE 20.7 mph 26.5 mph 0.00 in Rain Light Rain
5:34 AM 35.6 °F 25.5 °F 32.0 °F 87% 29.39 in 4.0 mi ENE 17.3 mph - 0.00 in   Light Drizzle
5:51 AM 36.0 °F 26.0 °F 32.0 °F 86% 29.41 in 4.0 mi ENE 17.3 mph 23.0 mph 0.00 in   Light Drizzle
6:06 AM 35.6 °F 25.9 °F 33.8 °F 93% 29.38 in 5.0 mi ENE 16.1 mph - 0.00 in   Light Drizzle
6:45 AM 37.4 °F 28.9 °F 33.8 °F 87% 29.38 in 3.0 mi ENE 13.8 mph 20.7 mph 0.00 in Rain Light Rain
6:51 AM 36.0 °F 27.5 °F 33.1 °F 89% 29.39 in 4.0 mi NE 12.7 mph - 0.01 in Rain Light Rain
7:08 AM 37.4 °F 29.3 °F 33.8 °F 87% 29.37 in 2.5 mi ENE 12.7 mph - 0.01 in Rain Light Rain
7:15 AM 37.4 °F 29.3 °F 33.8 °F 87% 29.36 in 4.0 mi ENE 12.7 mph - 0.02 in Rain Light Rain
7:44 AM 37.4 °F 29.8 °F 33.8 °F 87% 29.37 in 3.0 mi ENE 11.5 mph - 0.02 in Rain Light Rain
7:51 AM 37.0 °F 28.5 °F 34.0 °F 89% 29.39 in 3.0 mi ENE 13.8 mph - 0.02 in   Light Drizzle
8:14 AM 37.4 °F 28.9 °F 35.6 °F 93% 29.36 in 2.5 mi ENE 13.8 mph 23.0 mph 0.00 in   Light Drizzle
8:51 AM 37.9 °F 29.2 °F 35.1 °F 89% 29.39 in 2.5 mi ENE 15.0 mph - 0.00 in   Light Drizzle
9:12 AM 37.4 °F 28.2 °F 35.6 °F 93% 29.36 in 1.5 mi ENE 16.1 mph - 0.00 in   Light Drizzle
9:43 AM 39.2 °F 30.8 °F 35.6 °F 87% 29.36 in 2.0 mi East 15.0 mph - 0.00 in   Light Drizzle
9:51 AM 39.0 °F 31.0 °F 36.0 °F 89% 29.38 in 2.0 mi ENE 13.8 mph - 0.00 in Rain Light Rain
10:30 AM 39.2 °F 33.6 °F 35.6 °F 87% 29.37 in 3.0 mi ENE 8.1 mph - 0.00 in Rain Light Rain
10:51 AM 39.0 °F 31.4 °F 37.0 °F 93% 29.39 in 2.5 mi ENE 12.7 mph - 0.00 in   Light Drizzle
11:23 AM 39.2 °F 33.6 °F 37.4 °F 93% 29.37 in 1.5 mi NE 8.1 mph - 0.00 in   Light Drizzle
11:51 AM 39.9 °F 35.8 °F 37.9 °F 93% 29.40 in 1.5 mi ENE 5.8 mph - 0.00 in   Light Drizzle
12:28 PM 41.0 °F 38.0 °F 37.4 °F 87% 29.37 in 2.0 mi NE 4.6 mph - 0.00 in   Light Drizzle
12:51 PM 41.0 °F 35.8 °F 37.9 °F 89% 29.39 in 2.0 mi NNW 8.1 mph - 0.00 in   Light Drizzle
12:58 PM 39.2 °F 34.2 °F 37.4 °F 93% 29.37 in 0.2 mi NNW 6.9 mph - 0.00 in   Overcast
1:51 PM 37.9 °F 30.9 °F 36.0 °F 93% 29.41 in 0.2 mi North 10.4 mph - 0.00 in   Light Drizzle
2:25 PM 39.2 °F 35.0 °F 35.6 °F 87% 29.40 in 0.5 mi NNW 5.8 mph - 0.00 in   Overcast
2:49 PM 39.2 °F 35.0 °F 35.6 °F 87% 29.40 in 1.0 mi NNW 5.8 mph - 0.00 in   Overcast
2:51 PM 39.0 °F 34.8 °F 36.0 °F 89% 29.43 in 1.0 mi NNW 5.8 mph - 0.00 in   Overcast
3:43 PM 37.4 °F 30.3 °F 35.6 °F 93% 29.43 in 1.5 mi NNW 10.4 mph - N/A   Overcast
3:51 PM 37.0 °F 30.4 °F 35.1 °F 93% 29.47 in 1.5 mi NW 9.2 mph - N/A   Overcast
4:33 PM 37.4 °F 31.4 °F 33.8 °F 87% 29.47 in 1.0 mi NW 8.1 mph - 0.00 in   Light Drizzle
4:51 PM 36.0 °F 28.5 °F 34.0 °F 93% 29.50 in 1.0 mi NNW 10.4 mph - 0.00 in   Light Drizzle
5:51 PM 35.1 °F 28.6 °F 33.1 °F 92% 29.54 in 1.2 mi NW 8.1 mph - 0.00 in   Light Drizzle
6:22 PM 35.6 °F 29.2 °F 33.8 °F 93% 29.53 in 2.0 mi WNW 8.1 mph - 0.00 in Rain Light Rain
6:51 PM 35.1 °F 25.9 °F 32.0 °F 89% 29.58 in 2.0 mi WNW 13.8 mph - 0.00 in Rain Light Rain
6:59 PM 35.6 °F 28.6 °F 32.0 °F 87% 29.56 in 4.0 mi WNW 9.2 mph - 0.00 in Rain Light Rain
7:35 PM 35.6 °F 28.0 °F 32.0 °F 87% 29.57 in 4.0 mi WNW 10.4 mph - 0.00 in Rain Light Rain
7:51 PM 35.1 °F 27.9 °F 32.0 °F 89% 29.61 in 5.0 mi WNW 9.2 mph - 0.00 in   Light Drizzle
8:51 PM 35.1 °F 27.9 °F 32.0 °F 89% 29.62 in 7.0 mi WNW 9.2 mph - 0.00 in   Light Drizzle
9:51 PM 35.1 °F 26.9 °F 30.9 °F 85% 29.64 in 7.0 mi WNW 11.5 mph - 0.00 in   Overcast
10:51 PM 35.1 °F 25.9 °F 30.9 °F 85% 29.67 in 8.0 mi West 13.8 mph - N/A   Overcast
11:51 PM 34.0 °F 24.6 °F 30.9 °F 89% 29.69 in 5.0 mi West 13.8 mph - 0.00 in   Light Drizzle